Weather History for Idabel, OK

Change the Weather History Date:

Saturday, April 26, 2014

  Actual Average (KDEQ) Record (KDEQ)
Temperature  
Mean Temperature 68 °F 64 °F  
Max Temperature 87 °F 77 °F 88 °F (1939)
Min Temperature 50 °F 52 °F 33 °F (1950)
Degree Days  
Heating Degree Days 0 3  
Month to date heating degree days 144  
Since 1 July heating degree days 3012  
Cooling Degree Days 4 2  
Month to date cooling degree days 30  
Year to date cooling degree days 41  
Growing Degree Days 18 (Base 50)    
Moisture  
Dew Point 54 °F    
Average Humidity 56    
Maximum Humidity 82    
Minimum Humidity 40    
Precipitation  
Precipitation 0.00 in 0.18 in 3.52 in (1966)
Month to date precipitation 3.22  
Year to date precipitation 14.86  
Snow  
Snow 0.00 in - - ()
Month to date snowfall  
Since 1 July snowfall  
Snow Depth -    
Sea Level Pressure  
Sea Level Pressure 29.83 in    
Wind  
Wind Speed 9 mph (SE)    
Max Wind Speed 21 mph    
Max Gust Speed 26 mph    
Visibility 10 miles    
Events      
T = Trace of Precipitation, MM = Missing Value Source: NWS Daily Summary

Daily Weather History Graph

Daily Weather History Graph

Search for Another Location

Airport:

Trip Planner

Search our weather history database for the weather conditions in past years. The results will help you decide how hot, cold, wet, or windy it might be!

Date:

Astronomy

Apr. 26, 2014 Rise Set
Actual Time 6:35 AM CDT 7:59 PM CDT
Civil Twilight 6:09 AM CDT 8:25 PM CDT
Nautical Twilight 5:37 AM CDT 8:57 PM CDT
Astronomical Twilight 5:05 AM CDT 9:30 PM CDT
Moon 4:52 AM CDT (4/26) 5:35 PM CDT (4/26)
Length of Visible Light 14h 16m
Length of Day
13h 23m
Waning Crescent, 8% of the Moon is Illuminated
Apr 26
Waning Crescent
Apr 29
New
May 6
First Quarter
May 14
Full
May 21
Last Quarter

Hourly Weather History & Observations

Time (CDT) Temp. Heat Index Dew Point Humidity Pressure Visibility Wind Dir Wind Speed Gust Speed Precip Events Conditions
12:02 AM 62.6 °F - 39.2 °F 42% 29.94 in 10.0 mi SE 9.2 mph - N/A   Clear
12:22 AM 60.8 °F - 39.2 °F 45% 29.94 in 10.0 mi SE 6.9 mph - N/A   Clear
12:41 AM 60.8 °F - 41.0 °F 48% 29.94 in 10.0 mi SE 9.2 mph - N/A   Clear
1:01 AM 60.8 °F - 41.0 °F 48% 29.93 in 10.0 mi SE 8.1 mph - N/A   Clear
1:21 AM 59.0 °F - 41.0 °F 51% 29.93 in 10.0 mi SE 9.2 mph - N/A   Clear
1:41 AM 60.8 °F - 41.0 °F 48% 29.92 in 10.0 mi SE 9.2 mph - N/A   Clear
2:01 AM 59.0 °F - 41.0 °F 51% 29.91 in 10.0 mi SE 8.1 mph - N/A   Clear
2:21 AM 57.2 °F - 41.0 °F 55% 29.90 in 10.0 mi SE 6.9 mph - N/A   Clear
2:41 AM 57.2 °F - 39.2 °F 51% 29.89 in 10.0 mi ESE 8.1 mph - N/A   Clear
3:01 AM 57.2 °F - 41.0 °F 55% 29.89 in 10.0 mi ESE 8.1 mph - N/A   Clear
3:21 AM 55.4 °F - 41.0 °F 58% 29.89 in 10.0 mi ESE 6.9 mph - N/A   Clear
3:41 AM 55.4 °F - 42.8 °F 63% 29.88 in 10.0 mi ESE 5.8 mph - N/A   Clear
4:01 AM 53.6 °F - 42.8 °F 67% 29.88 in 10.0 mi ESE 4.6 mph - N/A   Clear
4:21 AM 53.6 °F - 42.8 °F 67% 29.87 in 10.0 mi ESE 6.9 mph - N/A   Clear
4:41 AM 55.4 °F - 42.8 °F 63% 29.88 in 10.0 mi SE 6.9 mph - N/A   Clear
5:01 AM 55.4 °F - 42.8 °F 63% 29.88 in 10.0 mi SE 5.8 mph - N/A   Clear
5:21 AM 55.4 °F - 42.8 °F 63% 29.88 in 10.0 mi SE 5.8 mph - N/A   Clear
5:41 AM 55.4 °F - 42.8 °F 63% 29.88 in 10.0 mi ESE 5.8 mph - N/A   Clear
6:01 AM 53.6 °F - 44.6 °F 72% 29.88 in 10.0 mi ESE 6.9 mph - N/A   Clear
6:21 AM 53.6 °F - 44.6 °F 72% 29.88 in 10.0 mi ESE 6.9 mph - N/A   Clear
6:41 AM 53.6 °F - 44.6 °F 72% 29.88 in 10.0 mi East 4.6 mph - N/A   Clear
7:01 AM 50.0 °F - 44.6 °F 82% 29.88 in 10.0 mi ENE 4.6 mph - N/A   Clear
7:21 AM 50.0 °F - 44.6 °F 82% 29.89 in 10.0 mi ENE 3.5 mph - N/A   Clear
7:41 AM 51.8 °F - 46.4 °F 82% 29.89 in 10.0 mi East 4.6 mph - N/A   Clear
8:01 AM 55.4 °F - 46.4 °F 72% 29.89 in 10.0 mi ESE 5.8 mph - N/A   Clear
8:21 AM 57.2 °F - 46.4 °F 67% 29.89 in 10.0 mi ESE 4.6 mph - N/A   Scattered Clouds
8:41 AM 60.8 °F - 48.2 °F 63% 29.89 in 10.0 mi SE 6.9 mph - N/A   Scattered Clouds
9:01 AM 64.4 °F - 48.2 °F 56% 29.89 in 10.0 mi SE 8.1 mph - N/A   Clear
9:21 AM 66.2 °F - 50.0 °F 56% 29.89 in 10.0 mi SE 4.6 mph - N/A   Clear
9:41 AM 68.0 °F - 51.8 °F 56% 29.89 in 10.0 mi SSE 6.9 mph - N/A   Clear
10:01 AM 69.8 °F - 53.6 °F 56% 29.89 in 10.0 mi SSE 8.1 mph - N/A   Clear
10:21 AM 71.6 °F - 53.6 °F 53% 29.89 in 10.0 mi SSE 5.8 mph - N/A   Clear
10:41 AM 73.4 °F - 55.4 °F 53% 29.89 in 10.0 mi SSE 9.2 mph - N/A   Clear
11:01 AM 73.4 °F - 55.4 °F 53% 29.88 in 10.0 mi SE 9.2 mph - N/A   Clear
11:21 AM 75.2 °F - 55.4 °F 50% 29.88 in 10.0 mi SE 6.9 mph - N/A   Clear
11:41 AM 75.2 °F - 57.2 °F 53% 29.87 in 10.0 mi SE 8.1 mph - N/A   Clear
12:01 PM 78.8 °F - 59.0 °F 51% 29.86 in 10.0 mi SE 10.4 mph 17.3 mph N/A   Clear
12:21 PM 78.8 °F - 57.2 °F 47% 29.84 in 10.0 mi SSE 16.1 mph - N/A   Clear
12:41 PM 78.8 °F - 60.8 °F 54% 29.84 in 10.0 mi SE 11.5 mph 16.1 mph N/A   Clear
1:01 PM 80.6 °F 81.5 °F 60.8 °F 51% 29.84 in 10.0 mi SSE 12.7 mph 17.3 mph N/A   Clear
1:21 PM 82.4 °F 82.9 °F 60.8 °F 48% 29.83 in 10.0 mi SE 13.8 mph 17.3 mph N/A   Clear
1:41 PM 82.4 °F 82.5 °F 59.0 °F 45% 29.82 in 10.0 mi South 12.7 mph 18.4 mph N/A   Clear
2:01 PM 82.4 °F 82.5 °F 59.0 °F 45% 29.81 in 10.0 mi SSE 15.0 mph 18.4 mph N/A   Clear
2:21 PM 84.2 °F 83.5 °F 57.2 °F 40% 29.80 in 10.0 mi SSE 10.4 mph 18.4 mph N/A   Clear
2:41 PM 84.2 °F 84.4 °F 60.8 °F 45% 29.79 in 10.0 mi SSE 15.0 mph - N/A   Clear
3:01 PM 84.2 °F 84.4 °F 60.8 °F 45% 29.79 in 10.0 mi South 12.7 mph - N/A   Clear
3:21 PM 86.0 °F 86.1 °F 60.8 °F 43% 29.78 in 10.0 mi SSE 12.7 mph 18.4 mph N/A   Clear
3:41 PM 86.0 °F 86.1 °F 60.8 °F 43% 29.77 in 10.0 mi South 15.0 mph 18.4 mph N/A   Clear
4:01 PM 86.0 °F 86.1 °F 60.8 °F 43% 29.76 in 10.0 mi SSE 17.3 mph 23.0 mph N/A   Clear
4:21 PM 87.8 °F 87.6 °F 60.8 °F 40% 29.74 in 10.0 mi SSE 15.0 mph - N/A   Clear
4:41 PM 87.8 °F 87.6 °F 60.8 °F 40% 29.74 in 10.0 mi South 17.3 mph - N/A   Clear
5:01 PM 87.8 °F 87.6 °F 60.8 °F 40% 29.74 in 10.0 mi South 15.0 mph 19.6 mph N/A   Clear
5:21 PM 86.0 °F 86.1 °F 60.8 °F 43% 29.73 in 10.0 mi South 16.1 mph 19.6 mph N/A   Clear
5:41 PM 86.0 °F 86.6 °F 62.6 °F 45% 29.73 in 10.0 mi SE 13.8 mph 20.7 mph N/A   Scattered Clouds
6:01 PM 86.0 °F 86.6 °F 62.6 °F 45% 29.74 in 10.0 mi South 20.7 mph 26.5 mph N/A   Scattered Clouds
6:21 PM 84.2 °F 85.0 °F 62.6 °F 48% 29.74 in 10.0 mi South 15.0 mph 21.9 mph N/A   Clear
6:41 PM 82.4 °F 83.4 °F 62.6 °F 51% 29.73 in 10.0 mi South 12.7 mph - N/A   Clear
7:01 PM 82.4 °F 83.4 °F 62.6 °F 51% 29.72 in 10.0 mi SSE 9.2 mph - N/A   Clear
7:21 PM 80.6 °F 81.8 °F 62.6 °F 54% 29.72 in 10.0 mi SSE 10.4 mph 17.3 mph N/A   Clear
8:01 PM 78.8 °F - 64.4 °F 61% 29.72 in 10.0 mi SSE 9.2 mph 16.1 mph N/A   Scattered Clouds
8:21 PM 78.8 °F - 64.4 °F 61% 29.72 in 10.0 mi SSE 10.4 mph - N/A   Scattered Clouds
8:41 PM 78.8 °F - 64.4 °F 61% 29.73 in 10.0 mi SSE 10.4 mph - N/A   Scattered Clouds
9:01 PM 78.8 °F - 64.4 °F 61% 29.73 in 10.0 mi SSE 10.4 mph - N/A   Mostly Cloudy
9:22 PM 77.0 °F - 64.4 °F 65% 29.74 in 10.0 mi SSE 8.1 mph - N/A   Scattered Clouds
9:42 PM 75.2 °F - 64.4 °F 69% 29.73 in 10.0 mi SSE 13.8 mph - N/A   Scattered Clouds
10:02 PM 75.2 °F - 64.4 °F 69% 29.73 in 10.0 mi SSE 13.8 mph 20.7 mph N/A   Scattered Clouds
10:22 PM 75.2 °F - 64.4 °F 69% 29.73 in 10.0 mi SSE 13.8 mph 19.6 mph N/A   Clear
10:42 PM 75.2 °F - 64.4 °F 69% 29.72 in 10.0 mi SSE 11.5 mph 18.4 mph N/A   Clear
11:02 PM 75.2 °F - 64.4 °F 69% 29.73 in 10.0 mi SSE 11.5 mph 19.6 mph N/A   Clear
11:22 PM 73.4 °F - 64.4 °F 73% 29.72 in 10.0 mi SSE 9.2 mph - N/A   Clear
11:42 PM 73.4 °F - 64.4 °F 73% 29.72 in 10.0 mi SE 8.1 mph - N/A   Clear